Location: Bretagne
(43.8474°N, 0.4650°W)
Time: 09:42:35
(UTC+00:00)

Cosmos 1934 Rocket - Pass Details

Date: 15 January 2026
Orbit: 938 x 998 km, 83.0° (Epoch: 17 February)

Event Time Altitude Azimuth Distance (km) Brightness Sun altitude
Rises 19:13:19 0° 351° (N) 3,629 7.0 -25.3°
Reaches altitude 10° 19:15:48 10° 351° (N) 2,687 6.3 -25.8°
Maximum altitude 19:21:57 84° 264° (W) 972 3.9 -26.9°
Drops below altitude 10° 19:28:10 10° 177° (S) 2,709 6.3 -28.0°
Sets 19:30:41 0° 177° (S) 3,661 7.0 -28.5°
